Location: Unspecified
(49.2170°N, 0.0000°E)
Time: 04:15:45
(UTC+00:00)

Transit 2A - Pass Details

Date: 26 June 2019
Orbit: 595 x 964 km, 66.7° (Epoch: 22 July)

Event Time Altitude Azimuth Distance (km) Brightness Sun altitude
Exits shadow 01:35:11 - 257° (WSW) 3,697 9.2 -14.5°
Rises 01:35:20 0° 258° (WSW) 3,647 9.2 -14.5°
Reaches altitude 10° 01:38:20 10° 270° (W) 2,695 8.6 -14.3°
Maximum altitude 01:43:39 27° 327° (NNW) 1,706 8.2 -14.0°
Drops below altitude 10° 01:48:47 10° 25° (NNE) 2,585 10.2 -13.7°
Sets 01:51:38 0° 37° (NE) 3,473 11.2 -13.5°
